TEJ501 SAEZ-SCEL

Flight info

Callsign TEJ501
Flight time N/A
Altitude 40000
Route URINO1A URINO UL405 TOSOR UT687 UMKAL UMKAL7C
Aircraft A35K/H-SDE2E3GHIJ3J4J5LM1ORWXY/LB1D1

Departure

Time 2026-04-30 03:56
Airport Ezeiza International Airport - Ministro Pistarini (SAEZ)

Arrival

Time N/A
Airport Comodoro Arturo Merino Benítez International Airport (SCEL)
Time Latitude Longitude Altitude Speed Heading
2026-04-30 03:34 -34.81608 -58.54571 76 ft 0 kts 12°
2026-04-30 03:46 -34.81615 -58.54573 76 ft 3 kts 12°
2026-04-30 03:47 -34.81634 -58.54578 76 ft 3 kts 12°
2026-04-30 03:47 -34.81652 -58.54583 62 ft 3 kts 12°
2026-04-30 03:47 -34.81664 -58.54587 65 ft 2 kts
2026-04-30 03:47 -34.81683 -58.54587 62 ft 3 kts 336°
2026-04-30 03:48 -34.81699 -58.54574 76 ft 3 kts 316°
2026-04-30 03:48 -34.81712 -58.54560 65 ft 2 kts 316°
2026-04-30 03:48 -34.81724 -58.54546 76 ft 2 kts 316°
2026-04-30 03:48 -34.81735 -58.54531 74 ft 2 kts 305°
2026-04-30 03:49 -34.81743 -58.54512 71 ft 3 kts 279°
2026-04-30 03:49 -34.81745 -58.54504 76 ft 0 kts 267°
2026-04-30 03:49 -34.81745 -58.54506 76 ft 1 kts 266°
2026-04-30 03:49 -34.81749 -58.54530 72 ft 5 kts 259°
2026-04-30 03:50 -34.81757 -58.54583 65 ft 8 kts 258°
2026-04-30 03:50 -34.81772 -58.54661 69 ft 11 kts 257°
2026-04-30 03:50 -34.81778 -58.54722 76 ft 0 kts 267°
2026-04-30 03:50 -34.81777 -58.54741 64 ft 4 kts 272°
2026-04-30 03:51 -34.81773 -58.54791 69 ft 8 kts 277°
2026-04-30 03:51 -34.81762 -58.54867 76 ft 11 kts 282°
2026-04-30 03:51 -34.81743 -58.54967 75 ft 14 kts 283°
2026-04-30 03:51 -34.81723 -58.55073 68 ft 12 kts 283°
2026-04-30 03:52 -34.81720 -58.55091 68 ft 2 kts 282°
2026-04-30 03:52 -34.81714 -58.55126 67 ft 6 kts 282°
2026-04-30 03:52 -34.81703 -58.55184 69 ft 7 kts 282°
2026-04-30 03:52 -34.81698 -58.55213 77 ft 2 kts 281°
2026-04-30 03:53 -34.81694 -58.55244 68 ft 5 kts 277°
2026-04-30 03:53 -34.81702 -58.55297 66 ft 8 kts 249°
2026-04-30 03:53 -34.81750 -58.55345 74 ft 10 kts 201°
2026-04-30 03:53 -34.81754 -58.55347 77 ft 0 kts 198°
2026-04-30 03:54 -34.81761 -58.55349 77 ft 3 kts 194°
2026-04-30 03:54 -34.81796 -58.55348 67 ft 7 kts 168°
2026-04-30 03:54 -34.81845 -58.55322 75 ft 9 kts 163°
2026-04-30 03:54 -34.81912 -58.55311 68 ft 9 kts 140°
2026-04-30 03:55 -34.81917 -58.55291 72 ft 0 kts 101°
2026-04-30 03:55 -34.81931 -58.55201 72 ft 49 kts 101°
2026-04-30 03:55 -34.82081 -58.54364 68 ft 150 kts 102°
2026-04-30 03:55 -34.82354 -58.52833 454 ft 205 kts 102°
2026-04-30 03:56 -34.82683 -58.51056 1483 ft 227 kts 107°
2026-04-30 03:56 -34.83491 -58.49359 2145 ft 240 kts 131°
2026-04-30 03:56 -34.84611 -58.47792 2613 ft 255 kts 133°
2026-04-30 03:56 -34.85752 -58.46097 3284 ft 263 kts 127°
2026-04-30 03:57 -34.86765 -58.44220 3991 ft 268 kts 123°
2026-04-30 03:57 -34.87744 -58.42249 4652 ft 276 kts 122°
2026-04-30 03:57 -34.88750 -58.40238 5330 ft 281 kts 126°
2026-04-30 03:57 -34.90112 -58.38561 6041 ft 278 kts 150°
2026-04-30 03:58 -34.91883 -58.37764 6769 ft 270 kts 177°
2026-04-30 03:58 -34.93725 -58.37950 7474 ft 265 kts 198°
2026-04-30 03:58 -34.95473 -58.38660 8166 ft 265 kts 207°
2026-04-30 03:58 -34.96994 -58.39903 8870 ft 264 kts 227°
2026-04-30 03:59 -34.97981 -58.41761 9591 ft 264 kts 251°
2026-04-30 03:59 -34.98170 -58.43983 10246 ft 270 kts 275°
2026-04-30 03:59 -34.97754 -58.46299 10551 ft 289 kts 283°
2026-04-30 03:59 -34.97171 -58.48729 10799 ft 307 kts 283°
2026-04-30 04:00 -34.96547 -58.51300 11042 ft 324 kts 283°
2026-04-30 04:00 -34.95905 -58.53996 11259 ft 339 kts 283°
2026-04-30 04:00 -34.95248 -58.56798 11660 ft 347 kts 283°
2026-04-30 04:00 -34.94584 -58.59638 12264 ft 349 kts 282°
2026-04-30 04:01 -34.93920 -58.62492 12899 ft 351 kts 282°
2026-04-30 04:01 -34.93265 -58.65320 13507 ft 352 kts 282°
2026-04-30 04:01 -34.92596 -58.68203 14082 ft 354 kts 282°
2026-04-30 04:01 -34.91925 -58.71094 14635 ft 355 kts 282°
2026-04-30 04:02 -34.91249 -58.74001 15181 ft 357 kts 282°
2026-04-30 04:02 -34.90572 -58.76914 15739 ft 358 kts 282°
2026-04-30 04:02 -34.89892 -58.79845 16307 ft 360 kts 282°
2026-04-30 04:02 -34.89209 -58.82783 16845 ft 361 kts 282°
2026-04-30 04:03 -34.88522 -58.85738 17406 ft 363 kts 282°
2026-04-30 04:03 -34.87831 -58.88704 17934 ft 365 kts 282°
2026-04-30 04:03 -34.87135 -58.91686 18428 ft 367 kts 281°
2026-04-30 04:03 -34.86434 -58.94687 18841 ft 369 kts 281°
2026-04-30 04:04 -34.85729 -58.97697 19264 ft 371 kts 281°
2026-04-30 04:04 -34.85020 -59.00724 19692 ft 372 kts 281°
2026-04-30 04:04 -34.84307 -59.03761 20119 ft 374 kts 281°
2026-04-30 04:04 -34.83591 -59.06809 20543 ft 375 kts 281°
2026-04-30 04:05 -34.82879 -59.09832 20946 ft 377 kts 280°
2026-04-30 04:05 -34.82156 -59.12903 21343 ft 379 kts 280°
2026-04-30 04:05 -34.81427 -59.15995 21742 ft 381 kts 280°
2026-04-30 04:05 -34.80694 -59.19104 22130 ft 382 kts 280°
2026-04-30 04:06 -34.79961 -59.22212 22494 ft 384 kts 280°
2026-04-30 04:06 -34.79220 -59.25345 22871 ft 386 kts 280°
2026-04-30 04:06 -34.78473 -59.28496 23247 ft 387 kts 279°
2026-04-30 04:06 -34.77723 -59.31655 23609 ft 389 kts 279°
2026-04-30 04:07 -34.76970 -59.34822 23931 ft 391 kts 280°
2026-04-30 04:07 -34.76214 -59.38000 24240 ft 392 kts 280°
2026-04-30 04:07 -34.75455 -59.41188 24533 ft 394 kts 280°
2026-04-30 04:08 -34.73932 -59.47566 25122 ft 396 kts 280°
2026-04-30 04:08 -34.73160 -59.50797 25439 ft 398 kts 280°
2026-04-30 04:08 -34.72386 -59.54029 25755 ft 399 kts 280°
2026-04-30 04:08 -34.71608 -59.57275 26071 ft 400 kts 280°
2026-04-30 04:09 -34.70827 -59.60528 26369 ft 402 kts 280°
2026-04-30 04:09 -34.70099 -59.63800 26688 ft 400 kts 277°
2026-04-30 04:09 -34.69578 -59.67119 27011 ft 399 kts 274°
2026-04-30 04:09 -34.69145 -59.70460 27355 ft 401 kts 273°
2026-04-30 04:10 -34.68754 -59.73826 27738 ft 402 kts 272°
2026-04-30 04:10 -34.68379 -59.77198 28097 ft 403 kts 272°
2026-04-30 04:10 -34.68003 -59.80581 28439 ft 405 kts 272°
2026-04-30 04:10 -34.67616 -59.83981 28746 ft 407 kts 273°
2026-04-30 04:11 -34.67220 -59.87403 29003 ft 410 kts 273°
2026-04-30 04:11 -34.66820 -59.90800 29340 ft 412 kts 273°
2026-04-30 04:11 -34.66409 -59.94257 29708 ft 413 kts 273°
2026-04-30 04:11 -34.65993 -59.97723 30043 ft 415 kts 273°
2026-04-30 04:12 -34.65573 -60.01200 30340 ft 417 kts 273°
2026-04-30 04:12 -34.65150 -60.04695 30629 ft 419 kts 273°
2026-04-30 04:12 -34.64725 -60.08205 30942 ft 420 kts 273°
2026-04-30 04:12 -34.64298 -60.11724 31262 ft 422 kts 273°
2026-04-30 04:13 -34.63870 -60.15249 31577 ft 423 kts 273°
2026-04-30 04:13 -34.63446 -60.18729 32028 ft 420 kts 274°
2026-04-30 04:13 -34.63018 -60.22224 32543 ft 417 kts 274°
2026-04-30 04:13 -34.62590 -60.25700 33046 ft 415 kts 274°
2026-04-30 04:14 -34.62165 -60.29151 33529 ft 412 kts 274°
2026-04-30 04:14 -34.61742 -60.32592 34011 ft 410 kts 273°
2026-04-30 04:14 -34.61322 -60.36008 34414 ft 408 kts 274°
2026-04-30 04:14 -34.60901 -60.39421 34791 ft 407 kts 274°
2026-04-30 04:15 -34.60481 -60.42823 35104 ft 407 kts 274°
2026-04-30 04:15 -34.60066 -60.46184 35382 ft 408 kts 274°
2026-04-30 04:15 -34.59644 -60.49592 35708 ft 408 kts 274°
2026-04-30 04:15 -34.59221 -60.52992 36094 ft 406 kts 274°
2026-04-30 04:16 -34.58798 -60.56375 36485 ft 405 kts 274°
2026-04-30 04:16 -34.58374 -60.59752 36850 ft 404 kts 274°
2026-04-30 04:16 -34.57951 -60.63117 37212 ft 403 kts 274°
2026-04-30 04:16 -34.57526 -60.66483 37576 ft 402 kts 274°
2026-04-30 04:17 -34.57105 -60.69829 37923 ft 401 kts 274°
2026-04-30 04:17 -34.56683 -60.73168 38264 ft 400 kts 274°
2026-04-30 04:17 -34.56263 -60.76496 38580 ft 399 kts 274°
2026-04-30 04:17 -34.55842 -60.79820 38832 ft 398 kts 275°
2026-04-30 04:18 -34.55420 -60.83144 39057 ft 399 kts 275°
2026-04-30 04:18 -34.55001 -60.86427 39243 ft 399 kts 275°
2026-04-30 04:18 -34.54578 -60.89752 39438 ft 399 kts 275°
2026-04-30 04:18 -34.54152 -60.93083 39624 ft 399 kts 275°
2026-04-30 04:19 -34.53712 -60.96410 39806 ft 400 kts 276°
2026-04-30 04:19 -34.53214 -60.99735 39969 ft 401 kts 276°
2026-04-30 04:19 -34.52688 -61.03061 40015 ft 403 kts 277°
2026-04-30 04:20 -34.51612 -61.09754 40023 ft 405 kts 277°
2026-04-30 04:20 -34.50551 -61.16459 40021 ft 405 kts 277°
2026-04-30 04:21 -34.49502 -61.23173 40021 ft 405 kts 277°
2026-04-30 04:21 -34.48455 -61.29883 40019 ft 405 kts 277°
2026-04-30 04:22 -34.47404 -61.36594 40018 ft 405 kts 277°
2026-04-30 04:23 -34.45301 -61.49929 40024 ft 405 kts 277°
2026-04-30 04:23 -34.44240 -61.56627 39994 ft 405 kts 277°
2026-04-30 04:24 -34.43167 -61.63339 40021 ft 406 kts 277°
2026-04-30 04:24 -34.42092 -61.70007 40021 ft 406 kts 277°
2026-04-30 04:25 -34.41007 -61.76720 40024 ft 406 kts 277°
2026-04-30 04:25 -34.39921 -61.83432 40021 ft 406 kts 277°
2026-04-30 04:26 -34.38831 -61.90139 40022 ft 406 kts 277°
2026-04-30 04:26 -34.37736 -61.96859 40018 ft 406 kts 278°
2026-04-30 04:27 -34.36825 -62.02431 40020 ft 405 kts 278°
2026-04-30 04:27 -34.35541 -62.10250 40021 ft 405 kts 278°
2026-04-30 04:28 -34.34443 -62.16946 40021 ft 406 kts 278°
2026-04-30 04:28 -34.33520 -62.22515 40017 ft 406 kts 278°
2026-04-30 04:29 -34.32406 -62.29215 40020 ft 406 kts 278°
2026-04-30 04:29 -34.31288 -62.35918 40023 ft 406 kts 278°
2026-04-30 04:30 -34.30168 -62.42619 40022 ft 406 kts 278°
2026-04-30 04:30 -34.29053 -62.49274 40023 ft 406 kts 278°
2026-04-30 04:31 -34.27927 -62.55967 40016 ft 406 kts 278°
2026-04-30 04:31 -34.26796 -62.62661 40017 ft 405 kts 278°
2026-04-30 04:32 -34.25666 -62.69333 40003 ft 405 kts 279°
2026-04-30 04:32 -34.24527 -62.76032 40018 ft 407 kts 279°
2026-04-30 04:33 -34.23391 -62.82692 40017 ft 407 kts 279°
2026-04-30 04:33 -34.22244 -62.89387 40009 ft 406 kts 279°
2026-04-30 04:34 -34.21096 -62.96070 40021 ft 406 kts 279°
2026-04-30 04:34 -34.19943 -63.02757 40007 ft 406 kts 279°
2026-04-30 04:35 -34.18786 -63.09446 40021 ft 406 kts 279°
2026-04-30 04:35 -34.17626 -63.16131 40019 ft 406 kts 279°
2026-04-30 04:36 -34.16461 -63.22818 40013 ft 406 kts 279°
2026-04-30 04:36 -34.15300 -63.29466 40013 ft 408 kts 279°
2026-04-30 04:37 -34.14118 -63.36209 40012 ft 408 kts 279°
2026-04-30 04:37 -34.12876 -63.42856 40012 ft 409 kts 281°
2026-04-30 04:38 -34.11566 -63.49534 40013 ft 408 kts 281°
2026-04-30 04:38 -34.10244 -63.56203 40014 ft 408 kts 281°
2026-04-30 04:39 -34.08922 -63.62865 40014 ft 408 kts 281°
2026-04-30 04:39 -34.07598 -63.69534 40013 ft 408 kts 281°
2026-04-30 04:40 -34.06274 -63.76190 40014 ft 408 kts 281°
2026-04-30 04:40 -34.04946 -63.82845 40001 ft 408 kts 281°
2026-04-30 04:41 -34.03612 -63.89510 40009 ft 409 kts 281°
2026-04-30 04:41 -34.02271 -63.96184 40008 ft 409 kts 281°
2026-04-30 04:42 -34.00936 -64.02811 40004 ft 409 kts 281°
2026-04-30 04:42 -33.99589 -64.09479 40006 ft 409 kts 282°
2026-04-30 04:43 -33.98240 -64.16131 40006 ft 409 kts 282°
2026-04-30 04:43 -33.96885 -64.22799 40007 ft 409 kts 282°
2026-04-30 04:44 -33.95530 -64.29445 40005 ft 409 kts 282°
2026-04-30 04:44 -33.94170 -64.36098 39980 ft 409 kts 282°
2026-04-30 04:45 -33.92804 -64.42767 40004 ft 410 kts 282°
2026-04-30 04:45 -33.91440 -64.49398 40001 ft 411 kts 282°
2026-04-30 04:46 -33.90177 -64.56101 40002 ft 410 kts 280°
2026-04-30 04:46 -33.89121 -64.62848 39998 ft 410 kts 279°
2026-04-30 04:47 -33.88064 -64.69601 39998 ft 410 kts 279°
2026-04-30 04:47 -33.86970 -64.76336 39996 ft 410 kts 280°
2026-04-30 04:48 -33.85854 -64.83074 40000 ft 410 kts 280°
2026-04-30 04:48 -33.84733 -64.89805 39998 ft 410 kts 280°
2026-04-30 04:49 -33.83618 -64.96484 39999 ft 410 kts 280°
2026-04-30 04:49 -33.82491 -65.03215 39999 ft 410 kts 280°
2026-04-30 04:50 -33.81361 -65.09939 40003 ft 410 kts 280°
2026-04-30 04:50 -33.80228 -65.16666 40001 ft 410 kts 280°
2026-04-30 04:51 -33.79090 -65.23391 40001 ft 410 kts 280°
2026-04-30 04:51 -33.77949 -65.30114 40003 ft 410 kts 280°
2026-04-30 04:52 -33.76804 -65.36839 39998 ft 411 kts 281°
2026-04-30 04:52 -33.75654 -65.43565 39999 ft 411 kts 281°
2026-04-30 04:53 -33.74508 -65.50247 40020 ft 411 kts 281°
2026-04-30 04:53 -33.73352 -65.56968 40003 ft 411 kts 281°
2026-04-30 04:54 -33.72190 -65.63700 39999 ft 412 kts 281°
2026-04-30 04:54 -33.71019 -65.70458 39998 ft 413 kts 281°
2026-04-30 04:55 -33.69845 -65.77212 39990 ft 413 kts 281°
2026-04-30 04:55 -33.68665 -65.83973 39996 ft 413 kts 281°
2026-04-30 04:56 -33.67484 -65.90721 39990 ft 413 kts 281°
2026-04-30 04:56 -33.66298 -65.97471 39991 ft 413 kts 281°
2026-04-30 04:57 -33.65110 -66.04216 39985 ft 413 kts 281°
2026-04-30 04:57 -33.63917 -66.10962 39988 ft 413 kts 281°
2026-04-30 04:58 -33.62720 -66.17711 39980 ft 413 kts 281°
2026-04-30 04:58 -33.61518 -66.24461 39976 ft 414 kts 282°
2026-04-30 04:59 -33.60318 -66.31187 39976 ft 415 kts 282°
2026-04-30 04:59 -33.59102 -66.37969 39976 ft 415 kts 282°
2026-04-30 05:00 -33.57884 -66.44746 39977 ft 415 kts 282°
2026-04-30 05:00 -33.56663 -66.51511 39973 ft 415 kts 282°
2026-04-30 05:01 -33.55438 -66.58283 39970 ft 415 kts 282°
2026-04-30 05:01 -33.54219 -66.64997 39957 ft 415 kts 282°
2026-04-30 05:02 -33.52989 -66.71751 39958 ft 415 kts 282°
2026-04-30 05:02 -33.51755 -66.78503 39952 ft 415 kts 282°
2026-04-30 05:03 -33.50516 -66.85257 39933 ft 414 kts 282°
2026-04-30 05:03 -33.49274 -66.92011 39954 ft 416 kts 282°
2026-04-30 05:04 -33.48024 -66.98784 39953 ft 416 kts 282°
2026-04-30 05:04 -33.46771 -67.05555 39949 ft 416 kts 283°
2026-04-30 05:05 -33.45513 -67.12325 39947 ft 416 kts 283°
2026-04-30 05:05 -33.44252 -67.19093 39946 ft 416 kts 283°
2026-04-30 05:06 -33.42364 -67.29187 39947 ft 415 kts 283°
2026-04-30 05:06 -33.41098 -67.35931 39946 ft 415 kts 283°
2026-04-30 05:07 -33.39826 -67.42677 39947 ft 415 kts 283°
2026-04-30 05:07 -33.38551 -67.49423 39946 ft 415 kts 283°
2026-04-30 05:08 -33.37270 -67.56181 39943 ft 417 kts 283°
2026-04-30 05:08 -33.35982 -67.62955 39942 ft 418 kts 283°
2026-04-30 05:09 -33.34689 -67.69731 39942 ft 418 kts 283°
2026-04-30 05:09 -33.33399 -67.76472 39947 ft 418 kts 283°
2026-04-30 05:10 -33.32098 -67.83251 39943 ft 418 kts 283°
2026-04-30 05:10 -33.30793 -67.90033 39943 ft 418 kts 283°
2026-04-30 05:11 -33.29485 -67.96808 39943 ft 418 kts 283°
2026-04-30 05:11 -33.28180 -68.03545 39942 ft 418 kts 283°
2026-04-30 05:12 -33.26864 -68.10322 39943 ft 418 kts 283°
2026-04-30 05:12 -33.25545 -68.17092 39936 ft 419 kts 283°
2026-04-30 05:13 -33.24214 -68.23900 39941 ft 421 kts 284°
2026-04-30 05:13 -33.22879 -68.30712 39941 ft 422 kts 284°
2026-04-30 05:14 -33.21537 -68.37535 39947 ft 422 kts 284°
2026-04-30 05:14 -33.20192 -68.44355 39944 ft 422 kts 284°
2026-04-30 05:15 -33.18852 -68.51124 39949 ft 422 kts 284°
2026-04-30 05:15 -33.17498 -68.57950 39950 ft 423 kts 284°
2026-04-30 05:16 -33.16140 -68.64779 39957 ft 423 kts 284°
2026-04-30 05:16 -33.14993 -68.70508 39957 ft 423 kts 284°
2026-04-30 05:17 -33.13399 -68.78450 39963 ft 423 kts 284°
2026-04-30 05:17 -33.12257 -68.84129 39964 ft 424 kts 284°
2026-04-30 05:18 -33.10875 -68.90989 39968 ft 426 kts 285°
2026-04-30 05:18 -33.09482 -68.97874 39960 ft 428 kts 285°
2026-04-30 05:19 -33.08082 -69.04774 39966 ft 427 kts 285°
2026-04-30 05:19 -33.06679 -69.11672 39961 ft 427 kts 285°
2026-04-30 05:20 -33.05282 -69.18518 39965 ft 427 kts 285°
2026-04-30 05:20 -33.03871 -69.25413 39966 ft 431 kts 286°
2026-04-30 05:21 -33.02442 -69.32371 39977 ft 432 kts 286°
2026-04-30 05:21 -33.01007 -69.39337 39954 ft 433 kts 285°
2026-04-30 05:22 -32.99572 -69.46294 39752 ft 429 kts 286°
2026-04-30 05:22 -32.98856 -69.49754 39007 ft 432 kts 286°
2026-04-30 05:22 -32.98135 -69.53238 38249 ft 437 kts 286°
2026-04-30 05:23 -32.97412 -69.56742 37150 ft 432 kts 287°
2026-04-30 05:23 -32.96686 -69.60224 35688 ft 434 kts 286°
2026-04-30 05:23 -32.95955 -69.63722 34219 ft 437 kts 286°
2026-04-30 05:23 -32.95216 -69.67244 32607 ft 440 kts 285°
2026-04-30 05:24 -32.94483 -69.70738 30986 ft 441 kts 285°
2026-04-30 05:24 -32.93740 -69.74293 29235 ft 443 kts 284°
2026-04-30 05:24 -32.92997 -69.77847 27805 ft 444 kts 284°
2026-04-30 05:24 -32.92255 -69.81388 27355 ft 435 kts 284°
2026-04-30 05:25 -32.91528 -69.84850 26829 ft 428 kts 284°
2026-04-30 05:25 -32.90808 -69.88269 26240 ft 424 kts 284°
2026-04-30 05:25 -32.90094 -69.91654 25635 ft 420 kts 284°
2026-04-30 05:25 -32.89384 -69.95015 25044 ft 417 kts 284°
2026-04-30 05:26 -32.88685 -69.98346 24486 ft 415 kts 283°
2026-04-30 05:26 -32.88175 -70.01754 24020 ft 418 kts 278°